Regional Weather Roundup
Issued by NWS Sterling, VA

Home | Current Version | Previous Version | Graphics & Text | Print | Product List | Glossary On
Versions: 1 2 3 4 5 6 7 8 9 10 11 12 13 14 15 16 17 18 19 20 21 22 23 24 25 26 27 28
000
ASUS41 KLWX 232111
RWRLWX

REGIONAL WEATHER ROUNDUP
NATIONAL WEATHER SERVICE BALTIMORE MD/WASHINGTON DC
400 PM EST THU NOV 23 2017

Note: "FAIR" indicates few or no clouds below 12,000 feet
with no significant weather and/or obstructions to visibility.
 TC=TEMPERATURE CELSIUS

 * =Non NWS site. Station does not report precipitation (e.g. rain,
    snow, etc.), thunder, or fog.

DCZ001-MDZ009-015-VAZ040>042-051-053>054-232200-
WASHINGTON METRO

CITY           SKY/WX    TMP DP  RH WIND       PRES   REMARKS
WASHINGTON NAT PTCLDY    45  21  38 CALM      30.08S
DULLES         PTCLDY    44  22  41 W5        30.07S
ANDREWS AFB    CLEAR     43  20  39 W3        30.05F
FT BELVOIR     CLEAR     46  20  36 W5        30.07F
COLLEGE PARK*  CLEAR     43  20  39 NW5       30.07S
LEESBURG*      CLEAR     45  27  49 CALM      30.07S
MANASSAS*      CLEAR     44  23  43 SW6       30.07F
GAITHERSBURG*  CLEAR     41  20  43 NW3       30.06R

$$

MDZ006>007-011-014-232200-
BALTIMORE METRO

CITY           SKY/WX    TMP DP  RH WIND       PRES   REMARKS
BWI AIRPORT    PTCLDY    43  23  45 VRB3      30.06F
MD SCIENCE CTR   N/A     44  22  41 MISG      30.05S
MARTIN STATE   PTCLDY    45  25  45 CALM      30.08S
FORT MEADE*    CLEAR     41  23  48 NW3       30.09S

$$

MDZ012-015-019>023-232200-
MARYLAND EASTERN SHORE

CITY           SKY/WX    TMP DP  RH WIND       PRES   REMARKS
OCEAN CITY     CLEAR     40  26  57 W6        30.08F
SALISBURY      CLEAR     41  27  57 NW5       30.08S
CAMBRIDGE*     CLEAR     41  23  48 CALM      30.08F
EASTON*        PTCLDY    41  23  48 CALM      30.11F

$$

MDZ017>025-232200-
SOUTHERN MARYLAND

CITY           SKY/WX    TMP DP  RH WIND       PRES   REMARKS
PATUXENT RIVER CLEAR     42  26  53 E3        30.08F
ST INIGOES     CLEAR     43  26  51 W7        30.08F
LEONARDTOWN*   CLEAR     43  25  49 W6        30.09S

$$

MDZ003>005-232200-
NORTH CENTRAL MARYLAND

CITY           SKY/WX    TMP DP  RH WIND       PRES   REMARKS
FREDERICK*     CLEAR     43  18  36 CALM      30.09R
HAGERSTOWN APT PTCLDY    43  21  41 S3        30.03F
WESTMINSTER*   CLEAR     43  25  49 SW6       30.03S

$$

MDZ501>502-232200-
WESTERN MARYLAND

CITY           SKY/WX    TMP DP  RH WIND       PRES   REMARKS
OAKLAND*       PTCLDY    34  18  51 W3        29.94R
CUMBERLAND*    CLEAR     46  21  36 CALM      30.06F

$$

VAZ025>031-232200-
SHENANDOAH VALLEY

CITY           SKY/WX    TMP DP  RH WIND       PRES   REMARKS
WINCHESTER*    CLEAR     41  23  48 CALM      30.04S
FRONT ROYAL*   CLEAR     43  23  45 MISG      30.03S
LURAY*         CLEAR     45  25  45 CALM      30.03S
NEW MARKET*    CLEAR     44  19  37 CALM      30.02F
STAUNTON*      CLEAR     44  23  44 CALM      30.04R
WAYNESBORO*    CLEAR     44  25  47 E5        30.01S

$$

WVZ021-048>050-054>055-232200-
EASTERN WEST VIRGINIA PANHANDLE

CITY           SKY/WX    TMP DP  RH WIND       PRES   REMARKS
MARTINSBURG    CLOUDY    44  19  36 CALM      30.03F
PETERSBURG*    CLEAR     46  21  37 CALM      30.02R

$$

VAZ036>039-050-232200-
CENTRAL FOOTHILLS

CITY           SKY/WX    TMP DP  RH WIND       PRES   REMARKS
CHARLOTTESVILL CLEAR     45  25  45 SE7       30.05S
CULPEPER*      CLEAR     45  22  41 SW3       30.08S
ORANGE*        CLEAR     43  25  49 CALM      30.06F
GORDONSVILLE*  CLEAR     44  25  47 S6        30.06S
WARRENTON*     NOT AVBL

$$

VAZ055>057-232200-
NORTH AND CENTRAL PIEDMONT

CITY           SKY/WX    TMP DP  RH WIND       PRES   REMARKS
FREDERICKSBRG* CLEAR     46  26  45 SW6       30.07S
STAFFORD*      CLEAR     44  22  41 SW3       30.11S

$$

NCZ024-NYZ072-PAZ021-071-VAZ022-071-232200-
OTHER REGIONAL OBSERVATIONS

CITY           SKY/WX    TMP DP  RH WIND       PRES   REMARKS
NEW YORK CITY  CLEAR     42  17  36 VRB3      30.03F
PHILADELPHIA   PTCLDY    42  18  37 CALM      30.05F
PITTSBURGH     PTCLDY    39  20  46 SW6       30.02S
ROANOKE        SUNNY     48  25  40 S8        30.04S
RICHMOND       PTCLDY    44  24  45 CALM      30.08F
RALEIGH        CLOUDY    48  28  46 CALM      30.06F

$$

ANZ530>537-232200-
MARINE OBSERVATIONS

STATION/POSITION TIME  TEMP    WIND        PRES
                       AIR SEA DIR/SP/G
                 (UTC) (F)     (DEG/KT/KT) (MB)
THOMAS PT LIGHT  2100   40 52  170/  6/  7   N/A
BALT KEY BRIDGE  2048   44     270/  4/  4 1018.1F
COVE POINT       2048   39     160/  6/  7 1019.3F
LEWISETTA        2042   42 49   10/  4/  5 1018.8F
SOLOMONS ISLAND  2042   42 53  120/  5/  6 1018.2F
PINEY POINT      2048          330/  8/ 10   N/A

$$





USA.gov is the U.S. government's official web portal to all federal, state and local government web resources and services.